Weather in Karakol

Kyrgyzstan     42°29′05″N   78°23′30″E
temp.,
°C
wind,
m/s
gust,
m/s
humid.,
%
clouds,
%
prec.,
mm/h
press.,
hPa
HPBL,
m
18 april, sun
sun1800:00+6se235390 0.1 102047
03:00+4sse2253100 0.0 101823
06:00+4sse225299 0.0 101916
09:00+8nw2145100 0.0 1019541
12:00+10wnw3244100 0.0 10171591
15:00+11wnw4345100 0.3 10151602
18:00+8nw2155100 0.9 1017363
21:00+6e2372100 0.4 101977
19 april, mon
mon1900:00+5sse1262100 0.4 101826
03:00+4sw1271100 0.1 101988
06:00+2wnw2292100 0.6 1022219
09:00+2nw2398100 4.6 1023391
12:00+4nw128243 5.7 1020451
15:00+8nnw335710 0.0 10171193
18:00+8nnw225398 0.1 1015888
21:00+5ese0072100 0.0 101710
20 april, tue
tue2000:00+5nw017398 0.0 101611
03:00+3sse12745 0.0 101614
06:00+3s1258100 0.0 101412
09:00+7nnw21535 0.0 1013412
12:00+10nw434786 0.0 10101265
15:00+11nw3344100 0.3 10091030
18:00+9nnw1146100 0.4 1009441
21:00+7e2254100 0.0 100919
21 april, wed
wed2100:00+5nw0160100 0.0 100817
03:00+4w1167100 0.0 100822
06:00+4se337999 0.4 1009170
09:00+6nw3269100 0.1 1008457
12:00+9nw3353100 0.2 10061014
15:00+11nw4445100 0.7 10041399
18:00+7nw4467100 1.0 1008974
21:00+1ene3398100 6.6 1015171
22 april, thu
thu2200:00+1ne1298100 8.6 1015161
03:00+1ne2297100 1.2 1016167
06:00−1ene2297100 2.8 1019183
09:00−1nne3498100 3.2 1021328
12:00−1ne4496100 5.2 1022448
15:000ne3393100 1.1 1021380
18:00−4ne4592100 4.8 1027323
21:00−6ene4692100 2.9 1032318